CCA1211 ZBAA-ZWWW

Flight info

Callsign CCA1211
Flight time N/A
Altitude 30100
Route BOTPU7X BOTPU W47 VIGEK W96 UPSUR W69 DKO W66 IDSIP/K0832S0980 W66 NUKTI B215 DUMAM DUMAM9Z
Aircraft A321/M-SDE3FGHIRWY/LB1

Departure

Time 2026-05-07 09:19
Airport Beijing Capital International Airport (ZBAA)

Arrival

Time N/A
Airport Ürümqi Tianshan International Airport (ZWWW)
Time Latitude Longitude Altitude Speed Heading
2026-05-07 09:09 40.05833 116.60725 129 ft 0 kts 63°
2026-05-07 09:14 40.05828 116.60712 119 ft 2 kts 63°
2026-05-07 09:14 40.05820 116.60693 119 ft 2 kts 63°
2026-05-07 09:14 40.05814 116.60674 127 ft 2 kts 82°
2026-05-07 09:15 40.05812 116.60653 127 ft 2 kts 85°
2026-05-07 09:15 40.05810 116.60632 114 ft 2 kts 87°
2026-05-07 09:15 40.05812 116.60604 121 ft 4 kts 121°
2026-05-07 09:15 40.05830 116.60587 118 ft 0 kts 175°
2026-05-07 09:16 40.05812 116.60589 121 ft 8 kts 175°
2026-05-07 09:16 40.05718 116.60603 121 ft 19 kts 172°
2026-05-07 09:16 40.05588 116.60603 123 ft 16 kts 211°
2026-05-07 09:16 40.05575 116.60509 120 ft 13 kts 266°
2026-05-07 09:17 40.05559 116.60353 119 ft 20 kts 263°
2026-05-07 09:17 40.05542 116.60173 119 ft 19 kts 263°
2026-05-07 09:17 40.05578 116.60040 120 ft 14 kts 310°
2026-05-07 09:17 40.05677 116.59996 121 ft 21 kts 352°
2026-05-07 09:18 40.06013 116.59942 122 ft 80 kts 353°
2026-05-07 09:18 40.06749 116.59827 120 ft 131 kts 353°
2026-05-07 09:18 40.07793 116.59666 123 ft 169 kts 353°
2026-05-07 09:18 40.08989 116.59482 526 ft 175 kts 355°
2026-05-07 09:19 40.10203 116.59294 1144 ft 175 kts 352°
2026-05-07 09:19 40.11431 116.59098 1501 ft 185 kts 352°
2026-05-07 09:19 40.12767 116.58883 1654 ft 202 kts 352°
2026-05-07 09:19 40.14220 116.58649 1774 ft 219 kts 352°
2026-05-07 09:20 40.15794 116.58399 1911 ft 242 kts 352°
2026-05-07 09:20 40.17507 116.58133 2347 ft 252 kts 352°
2026-05-07 09:20 40.19267 116.57856 2987 ft 256 kts 352°
2026-05-07 09:20 40.21035 116.57575 3691 ft 257 kts 352°
2026-05-07 09:21 40.22815 116.57295 4355 ft 259 kts 352°
2026-05-07 09:21 40.24568 116.56768 5007 ft 259 kts 338°
2026-05-07 09:21 40.26145 116.55640 5679 ft 259 kts 323°
2026-05-07 09:21 40.27510 116.54096 6378 ft 259 kts 319°
2026-05-07 09:22 40.28858 116.52525 7012 ft 260 kts 319°
2026-05-07 09:22 40.30179 116.50891 7588 ft 263 kts 311°
2026-05-07 09:22 40.31157 116.48850 8224 ft 267 kts 295°
2026-05-07 09:22 40.31638 116.46476 8830 ft 274 kts 278°
2026-05-07 09:23 40.31665 116.43956 9419 ft 278 kts 273°
2026-05-07 09:23 40.31656 116.41402 9976 ft 282 kts 273°
2026-05-07 09:23 40.31654 116.38797 10288 ft 294 kts 274°
2026-05-07 09:23 40.31659 116.36029 10426 ft 313 kts 274°
2026-05-07 09:24 40.31667 116.33093 10552 ft 331 kts 274°
2026-05-07 09:24 40.31670 116.30021 10832 ft 341 kts 273°
2026-05-07 09:24 40.31668 116.26927 11341 ft 345 kts 274°
2026-05-07 09:24 40.31663 116.23775 11893 ft 347 kts 274°
2026-05-07 09:25 40.31655 116.20596 12434 ft 350 kts 274°
2026-05-07 09:25 40.31648 116.17395 13008 ft 352 kts 274°
2026-05-07 09:25 40.31643 116.14173 13559 ft 355 kts 275°
2026-05-07 09:25 40.31636 116.10925 14098 ft 358 kts 275°
2026-05-07 09:26 40.31629 116.07654 14596 ft 360 kts 274°
2026-05-07 09:26 40.31622 116.04364 15070 ft 362 kts 275°
2026-05-07 09:26 40.31610 116.01058 15572 ft 364 kts 275°
2026-05-07 09:26 40.31599 115.97731 16044 ft 364 kts 275°
2026-05-07 09:27 40.31590 115.94404 16460 ft 367 kts 275°
2026-05-07 09:27 40.31580 115.91054 16922 ft 369 kts 275°
2026-05-07 09:27 40.31548 115.84276 17835 ft 374 kts 275°
2026-05-07 09:28 40.31533 115.80856 18295 ft 376 kts 275°
2026-05-07 09:28 40.31472 115.77417 18697 ft 381 kts 269°
2026-05-07 09:28 40.30911 115.73983 19091 ft 391 kts 256°
2026-05-07 09:28 40.29714 115.70732 19490 ft 402 kts 242°
2026-05-07 09:29 40.27901 115.67873 19882 ft 413 kts 227°
2026-05-07 09:29 40.25550 115.65638 20277 ft 424 kts 213°
2026-05-07 09:29 40.22948 115.63879 20646 ft 427 kts 212°
2026-05-07 09:29 40.20298 115.62106 21046 ft 428 kts 212°
2026-05-07 09:30 40.17641 115.60326 21425 ft 430 kts 212°
2026-05-07 09:30 40.14975 115.58535 21789 ft 432 kts 212°
2026-05-07 09:30 40.12299 115.56733 22161 ft 433 kts 212°
2026-05-07 09:30 40.09610 115.54927 22494 ft 436 kts 212°
2026-05-07 09:31 40.06912 115.53110 22856 ft 437 kts 214°
2026-05-07 09:31 40.04414 115.50914 23136 ft 430 kts 226°
2026-05-07 09:31 40.02347 115.48141 23487 ft 423 kts 238°
2026-05-07 09:31 40.00772 115.44939 23795 ft 415 kts 250°
2026-05-07 09:32 39.99728 115.41475 24079 ft 408 kts 261°
2026-05-07 09:32 39.99223 115.37921 24365 ft 401 kts 271°
2026-05-07 09:32 39.99227 115.34305 24656 ft 397 kts 279°
2026-05-07 09:32 39.99422 115.30709 24918 ft 398 kts 278°
2026-05-07 09:33 39.99610 115.27094 25200 ft 399 kts 278°
2026-05-07 09:33 39.99794 115.23482 25518 ft 400 kts 278°
2026-05-07 09:33 39.99975 115.19858 25792 ft 401 kts 279°
2026-05-07 09:33 40.00156 115.16224 26069 ft 402 kts 278°
2026-05-07 09:34 40.00338 115.12577 26339 ft 403 kts 279°
2026-05-07 09:34 40.00517 115.08928 26568 ft 404 kts 278°
2026-05-07 09:34 40.00695 115.05269 26899 ft 404 kts 278°
2026-05-07 09:34 40.00872 115.01613 27244 ft 404 kts 278°
2026-05-07 09:35 40.01051 114.97953 27499 ft 404 kts 278°
2026-05-07 09:35 40.01231 114.94291 27740 ft 406 kts 278°
2026-05-07 09:35 40.01410 114.90611 27985 ft 407 kts 278°
2026-05-07 09:35 40.01587 114.86930 28227 ft 407 kts 278°
2026-05-07 09:36 40.01766 114.83237 28460 ft 408 kts 278°
2026-05-07 09:36 40.01943 114.79536 28699 ft 409 kts 278°
2026-05-07 09:36 40.02119 114.75829 28984 ft 409 kts 278°
2026-05-07 09:36 40.02292 114.72134 29333 ft 407 kts 278°
2026-05-07 09:37 40.02462 114.68446 29672 ft 406 kts 278°
2026-05-07 09:37 40.02630 114.64779 30011 ft 404 kts 278°
2026-05-07 09:37 40.02797 114.61125 30131 ft 400 kts 278°
2026-05-07 09:38 40.03117 114.53992 30140 ft 391 kts 279°
2026-05-07 09:38 40.03437 114.46911 30139 ft 391 kts 279°
2026-05-07 09:39 40.03751 114.39834 30144 ft 390 kts 278°
2026-05-07 09:39 40.04052 114.32757 30143 ft 391 kts 279°
2026-05-07 09:40 40.04356 114.25678 30138 ft 390 kts 279°
2026-05-07 09:40 40.04656 114.18610 30135 ft 389 kts 280°
2026-05-07 09:41 40.05919 114.11933 30136 ft 378 kts 297°
2026-05-07 09:41 40.08387 114.05910 30110 ft 376 kts 301°
2026-05-07 09:42 40.10885 113.99909 30125 ft 376 kts 301°
2026-05-07 09:42 40.13365 113.93844 30124 ft 376 kts 301°
2026-05-07 09:43 40.15785 113.87838 30126 ft 376 kts 301°
2026-05-07 09:43 40.18218 113.81792 30133 ft 376 kts 301°
2026-05-07 09:44 40.20675 113.75705 30140 ft 376 kts 301°
2026-05-07 09:44 40.23099 113.69702 30142 ft 376 kts 301°
2026-05-07 09:45 40.25531 113.63653 30146 ft 375 kts 301°
2026-05-07 09:45 40.27976 113.57633 30159 ft 374 kts 302°
2026-05-07 09:46 40.30447 113.51614 30155 ft 374 kts 302°
2026-05-07 09:46 40.32897 113.45599 30158 ft 374 kts 301°
2026-05-07 09:47 40.35340 113.39574 30122 ft 374 kts 302°
2026-05-07 09:47 40.37781 113.33548 30142 ft 374 kts 302°
2026-05-07 09:48 40.40220 113.27518 30153 ft 374 kts 302°
2026-05-07 09:48 40.42655 113.21486 30180 ft 374 kts 302°
2026-05-07 09:49 40.45081 113.15448 30168 ft 375 kts 302°
2026-05-07 09:49 40.47509 113.09390 30137 ft 375 kts 302°
2026-05-07 09:50 40.49927 113.03331 30153 ft 374 kts 302°
2026-05-07 09:50 40.52314 112.97309 30167 ft 373 kts 302°
2026-05-07 09:51 40.54710 112.91254 30170 ft 373 kts 302°
2026-05-07 09:51 40.57107 112.85192 30170 ft 373 kts 302°
2026-05-07 09:52 40.59100 112.78862 30167 ft 382 kts 289°
2026-05-07 09:52 40.59795 112.71833 30176 ft 390 kts 283°
2026-05-07 09:53 40.60248 112.64703 30186 ft 392 kts 282°
2026-05-07 09:53 40.60606 112.57556 30193 ft 391 kts 281°
2026-05-07 09:54 40.60976 112.50410 30193 ft 391 kts 282°
2026-05-07 09:54 40.61277 112.43260 30169 ft 392 kts 280°
2026-05-07 09:55 40.61428 112.36061 30178 ft 395 kts 279°
2026-05-07 09:55 40.61560 112.28827 30189 ft 395 kts 279°
2026-05-07 09:56 40.61710 112.21649 30183 ft 395 kts 278°
2026-05-07 09:56 40.61879 112.14418 30197 ft 394 kts 279°
2026-05-07 09:57 40.62043 112.07212 30191 ft 394 kts 278°
2026-05-07 09:57 40.62198 112.00006 30197 ft 394 kts 278°
2026-05-07 09:58 40.62360 111.92803 30188 ft 394 kts 278°
2026-05-07 09:58 40.62494 111.85592 30189 ft 394 kts 278°
2026-05-07 09:59 40.62599 111.79604 30187 ft 394 kts 278°
2026-05-07 09:59 40.62731 111.72399 30177 ft 394 kts 278°
2026-05-07 10:00 40.62864 111.65173 30176 ft 394 kts 278°
2026-05-07 10:00 40.62991 111.57959 30184 ft 394 kts 278°
2026-05-07 10:01 40.63111 111.50742 30184 ft 394 kts 278°
2026-05-07 10:01 40.63234 111.43515 30184 ft 394 kts 278°
2026-05-07 10:02 40.63351 111.36297 30179 ft 394 kts 278°
2026-05-07 10:02 40.63455 111.29080 30179 ft 394 kts 278°
2026-05-07 10:03 40.63557 111.21857 30178 ft 394 kts 278°
2026-05-07 10:03 40.63658 111.14638 30177 ft 394 kts 278°
2026-05-07 10:04 40.63761 111.07420 30157 ft 394 kts 277°
2026-05-07 10:04 40.63853 111.00203 30164 ft 394 kts 277°
2026-05-07 10:05 40.63932 110.92987 30177 ft 394 kts 277°
2026-05-07 10:05 40.64018 110.85832 30174 ft 393 kts 277°
2026-05-07 10:06 40.64103 110.78581 30156 ft 394 kts 277°
2026-05-07 10:06 40.64173 110.71356 30152 ft 395 kts 277°
2026-05-07 10:07 40.64239 110.64169 30155 ft 395 kts 277°
2026-05-07 10:07 40.64297 110.56934 30164 ft 395 kts 277°
2026-05-07 10:08 40.64355 110.49702 30162 ft 395 kts 277°
2026-05-07 10:08 40.64416 110.42455 30135 ft 395 kts 277°
2026-05-07 10:09 40.64469 110.35195 30142 ft 396 kts 277°
2026-05-07 10:09 40.64516 110.27983 30143 ft 397 kts 276°
2026-05-07 10:10 40.64558 110.20723 30144 ft 397 kts 276°
2026-05-07 10:10 40.64601 110.13456 30117 ft 397 kts 276°
2026-05-07 10:11 40.64637 110.06187 30120 ft 397 kts 276°
2026-05-07 10:11 40.64657 109.98919 30126 ft 399 kts 274°
2026-05-07 10:12 40.64011 109.91604 30098 ft 403 kts 269°
2026-05-07 10:12 40.63276 109.84294 30116 ft 403 kts 269°
2026-05-07 10:13 40.62540 109.76984 30101 ft 403 kts 268°
2026-05-07 10:13 40.61801 109.69681 30115 ft 402 kts 268°
2026-05-07 10:14 40.61062 109.62371 30118 ft 402 kts 268°
2026-05-07 10:14 40.60323 109.55086 30121 ft 402 kts 268°
2026-05-07 10:15 40.59578 109.47801 30117 ft 402 kts 268°
2026-05-07 10:15 40.58829 109.40510 30099 ft 402 kts 268°
2026-05-07 10:16 40.58080 109.33264 30105 ft 402 kts 268°
2026-05-07 10:16 40.57312 109.25967 30106 ft 403 kts 268°
2026-05-07 10:17 40.56541 109.18683 30087 ft 402 kts 268°
2026-05-07 10:17 40.55764 109.11390 30070 ft 403 kts 268°
2026-05-07 10:18 40.54990 109.04091 30079 ft 403 kts 268°
2026-05-07 10:18 40.54216 108.96791 30086 ft 403 kts 267°
2026-05-07 10:19 40.53426 108.89490 30096 ft 403 kts 267°
2026-05-07 10:19 40.52634 108.82194 30092 ft 403 kts 267°
2026-05-07 10:20 40.51841 108.74938 30064 ft 403 kts 267°
2026-05-07 10:20 40.51042 108.67635 30065 ft 404 kts 267°
2026-05-07 10:21 40.50244 108.60319 30073 ft 405 kts 266°
2026-05-07 10:21 40.49430 108.52994 30069 ft 405 kts 266°
2026-05-07 10:22 40.48602 108.45654 30061 ft 405 kts 266°
2026-05-07 10:22 40.47773 108.38331 30058 ft 405 kts 266°
2026-05-07 10:23 40.46947 108.31013 30062 ft 405 kts 266°
2026-05-07 10:23 40.46122 108.23700 30064 ft 405 kts 266°
2026-05-07 10:24 40.45288 108.16399 30062 ft 404 kts 266°
2026-05-07 10:24 40.44451 108.09095 30062 ft 404 kts 266°
2026-05-07 10:25 40.43601 108.01803 30055 ft 404 kts 266°
2026-05-07 10:25 40.42752 107.94504 30061 ft 404 kts 266°
2026-05-07 10:26 40.41898 107.87212 30070 ft 404 kts 266°
2026-05-07 10:26 40.41036 107.79922 30052 ft 404 kts 266°
2026-05-07 10:27 40.40172 107.72628 30031 ft 405 kts 266°
2026-05-07 10:27 40.39305 107.65336 30051 ft 405 kts 265°
2026-05-07 10:28 40.38429 107.58042 30050 ft 404 kts 265°
2026-05-07 10:28 40.37549 107.50766 30056 ft 404 kts 265°
2026-05-07 10:29 40.36669 107.43499 30056 ft 403 kts 265°
2026-05-07 10:29 40.35782 107.36236 30039 ft 403 kts 265°
2026-05-07 10:30 40.34447 107.25374 30048 ft 404 kts 265°
2026-05-07 10:30 40.33548 107.18112 30051 ft 404 kts 265°
2026-05-07 10:31 40.32647 107.10845 30052 ft 404 kts 265°
2026-05-07 10:31 40.31739 107.03574 30043 ft 404 kts 265°
2026-05-07 10:32 40.31355 106.96303 30047 ft 397 kts 278°
2026-05-07 10:32 40.32707 106.89361 30047 ft 393 kts 291°
2026-05-07 10:33 40.34511 106.82594 30043 ft 394 kts 290°
2026-05-07 10:33 40.36307 106.75806 30043 ft 394 kts 290°
2026-05-07 10:34 40.38095 106.69062 30034 ft 394 kts 290°
2026-05-07 10:34 40.39910 106.62224 30026 ft 395 kts 290°
2026-05-07 10:35 40.41707 106.55413 30036 ft 395 kts 290°
2026-05-07 10:35 40.43490 106.48629 30042 ft 396 kts 290°
2026-05-07 10:36 40.45278 106.41786 30049 ft 396 kts 290°
2026-05-07 10:36 40.47066 106.34945 30050 ft 396 kts 290°
2026-05-07 10:37 40.48855 106.28102 30058 ft 396 kts 290°
2026-05-07 10:37 40.50639 106.21244 30060 ft 396 kts 290°
2026-05-07 10:38 40.52410 106.14434 30056 ft 396 kts 290°
2026-05-07 10:38 40.54187 106.07580 30056 ft 396 kts 290°
2026-05-07 10:39 40.55952 106.00726 30061 ft 396 kts 289°
2026-05-07 10:39 40.57708 105.93867 30046 ft 396 kts 289°
2026-05-07 10:40 40.59469 105.86985 30030 ft 397 kts 289°
2026-05-07 10:40 40.61236 105.80095 30039 ft 398 kts 289°
2026-05-07 10:41 40.63001 105.73195 30031 ft 398 kts 289°
2026-05-07 10:41 40.64763 105.66287 30037 ft 398 kts 289°
2026-05-07 10:42 40.66515 105.59375 30024 ft 398 kts 289°
2026-05-07 10:42 40.67965 105.53618 30023 ft 399 kts 289°
2026-05-07 10:43 40.69712 105.46671 30018 ft 400 kts 289°
2026-05-07 10:43 40.71747 105.38583 30025 ft 400 kts 289°
2026-05-07 10:44 40.73211 105.32754 30025 ft 400 kts 289°
2026-05-07 10:44 40.74953 105.25789 30014 ft 400 kts 288°
2026-05-07 10:45 40.76694 105.18811 30027 ft 401 kts 289°
2026-05-07 10:45 40.78421 105.11866 30017 ft 401 kts 289°
2026-05-07 10:46 40.80154 105.04859 30020 ft 402 kts 289°
2026-05-07 10:46 40.81890 104.97837 30013 ft 402 kts 289°
2026-05-07 10:47 40.83625 104.90811 29996 ft 403 kts 288°
2026-05-07 10:47 40.85358 104.83755 29996 ft 404 kts 288°